Home > Weather > Winchester > Past weeks

Flag for United Kingdom Past Weather in Winchester, England, United Kingdom — Yesterday and Last 2 Weeks

Now
55 °F

Mostly cloudy.


Feels Like: 55 °F
Forecast: 50 / 68 °F
Wind: 3 mph from Northeast

Location: Middle Wallop

Current Time: May 28, 2016 at 3:10:53 AM

Latest Report: May 28, 2016 at 1:50 AM


Visibility: 3 mi

Pressure: 30.01 "Hg

Humidity: 100%

Dew Point: 55 °F

Location of WinchesterLocation

Past Weather in Winchester — Graph

°F

Winchester Temperature Yesterday

Maximum temperature yesterday: 70 °F (at 1:50 PM)
Minimum temperature yesterday: 52 °F (at 12:50 AM)
Average temperature yesterday: 60 °F

High & Low Weather Summary for the Past Weeks

 TemperatureHumidityPressure
High70 °F (May 27, 1:50 PM)100% (May 19, 9:50 PM)30.21 "Hg (May 19, 9:50 PM)
Low37 °F (May 15, 5:50 AM)39% (May 14, 3:50 PM)29.59 "Hg (May 18, 11:50 AM)
Average54 °F75%29.97 "Hg
* Reported May 13 1:50 AM — May 28 1:50 AM, Winchester, Weather by CustomWeather, © 2016

Note: Actual official high and low records may vary slightly from our data, if they occured in-between our weather recording intervals... More about our weather records

Advertising

Winchester Weather History for the Previous 24 Hours

Scroll right to see more
 ConditionsComfort  
Time TempWeatherWind HumidityBarometerVisibility
1:50 AM
Sat, May 28
55 °FMostly cloudy.3 mph100%30.01 "Hg2 mi
12:50 AM55 °FOvercast.2 mph94%30.01 "Hg4 mi
11:50 PM
Fri, May 27
57 °FPassing clouds.9 mph94%30.04 "Hg1 mi
10:50 PM55 °FPassing clouds.5 mph94%30.01 "Hg4 mi
9:50 PM59 °FBroken clouds.3 mph88%30.01 "Hg6 mi
8:50 PM61 °FPartly sunny.1 mph83%30.01 "HgN/A
7:50 PM63 °FScattered clouds.3 mph73%29.98 "HgN/A
6:50 PM63 °FScattered clouds.8 mph73%29.98 "HgN/A
5:50 PM63 °FBroken clouds.13 mph83%29.98 "Hg3 mi
4:50 PM66 °FBroken clouds.5 mph60%29.98 "HgN/A
3:50 PM68 °FScattered showers. Scattered clouds.7 mph49%30.01 "HgN/A
2:50 PM70 °FScattered clouds.10 mph46%30.01 "HgN/A
1:50 PM70 °FBroken clouds.7 mph46%30.01 "HgN/A
12:50 PM66 °FScattered clouds.9 mph49%30.01 "HgN/A
11:50 AM66 °FSunny.9 mph49%30.01 "Hg10 mi
10:50 AM63 °FSunny.10 mph59%30.01 "Hg10 mi
9:50 AM61 °FSunny.10 mph59%30.01 "Hg10 mi
8:50 AM55 °FPartly sunny.9 mph77%30.01 "HgN/A
7:50 AM55 °FSunny.13 mph77%30.01 "Hg10 mi
6:50 AM54 °FScattered clouds.7 mph88%30.01 "Hg5 mi
5:50 AM52 °FOvercast.8 mph94%30.01 "Hg3 mi
4:50 AM52 °FOvercast.8 mph94%29.98 "Hg4 mi
3:50 AM52 °FOvercast.3 mph94%30.01 "Hg6 mi
Weather by CustomWeather, © 2016

See weather overviewHow to use our weather pages